YO8RXT-3 Weather Reports


time (UTC)temp
C
wind
direction
speed
KPH
gust
KPH
rain 1hr
cm
rain 24hr
cm
rain mn
cm
humidity
%
barometer
mb
20260504050503 10 240 8.0 0.0 0.00 0.00 0.00 58 1016.0
20260504043503 7 190 4.8 0.0 0.00 0.00 0.00 71 1016.0
20260504040503 7 3.2 0.0 0.00 0.00 0.00 71 1016.0
20260504033503 8 3.2 0.0 0.00 0.00 0.00 58 1016.0
20260504030502 8 3.2 0.0 0.00 0.00 0.00 58 1016.0
20260504023503 8 240 8.0 0.0 0.00 0.00 0.00 58 1016.0
20260504020503 8 3.2 0.0 0.00 0.00 0.00 54 1016.0
20260504013503 8 230 1.6 0.0 0.00 0.00 0.00 58 1016.0
20260504010503 8 0 0.0 0.0 0.00 0.00 0.00 58 1016.0
20260504003503 8 3.2 0.0 0.00 0.00 0.00 58 1017.0
20260504000502 7 3.2 0.0 0.00 0.00 0.00 66 1017.0
20260503233503 10 240 3.2 0.0 0.00 0.00 0.00 50 1017.0
20260503230503 10 270 8.0 0.0 0.00 0.00 0.00 50 1017.0
20260503223502 11 250 3.2 0.0 0.00 0.00 0.00 44 1017.0
20260503220504 11 240 3.2 0.0 0.00 0.00 0.00 44 1017.0
20260503213503 11 1.6 0.0 0.00 0.00 0.00 44 1017.0
20260503210502 12 3.2 0.0 0.00 0.00 0.00 41 1017.0
20260503203502 12 220 8.0 0.0 0.00 0.00 0.00 41 1018.0
20260503200502 12 230 8.0 0.0 0.00 0.00 0.00 41 1018.0
20260503193502 12 220 8.0 0.0 0.00 0.00 0.00 44 1018.0
20260503190503 12 210 8.0 0.0 0.00 0.00 0.00 41 1018.0
20260503183502 13 220 4.8 0.0 0.00 0.00 0.00 36 1018.0
20260503180502 13 260 4.8 0.0 0.00 0.00 0.00 33 1018.0
20260503173502 13 270 8.0 0.0 0.00 0.00 0.00 36 1018.0
20260503170503 15 3.2 0.0 0.00 0.00 0.00 34 1018.0
20260503150503 16 310 8.0 0.0 0.00 0.00 0.00 31 1019.0
20260503130502 16 4.8 0.0 0.00 0.00 0.00 27 1020.0
20260503110502 16 4.8 0.0 0.00 0.00 0.00 27 1022.0
20260503090502 15 70 9.7 0.0 0.00 0.00 0.00 31 1023.0
20260503080502 13 3.2 0.0 0.00 0.00 0.00 27 1023.0
20260503070503 12 3.2 0.0 0.00 0.00 0.00 33 1023.0